DELTA 1 DEB

Satellite information

Favourite Embed

Satellite Type and Status

DEBRISIN ORBIT

Key statistics

Satellite DELTA 1 DEB at a glance.

Uptime

20669

Days in orbit

Revolutions

≈ 12.6

Per day

Orbit

SSO

Sun Synchronous Orbit

Inclination

101.7

Latest

Satellite identification and parameters

Extended collection of information and parameters for DELTA 1 DEB.

Object identification

Identified? True

Debris? True

Object name: DELTA 1 DEB

International designator: 1968-114U

Object number (NORAD): 42092

Object ID (CCSDS): 42092

Country: UNITED STATES OF AMERICA (US)

Current information (Y/N): Y

RCS size: SMALL

Orbital parameters

Period: 114.247 minutes

Inclination: 101.6542 deg

SMA: 7799.308 km

Apoapsis: 1450.868 km

Periapsis: 1391.479 km

RAAN: 304.2844 deg

Eccentricy: 0.0038073

Argument of periapsis: 103.3797 deg

Mean anomaly: 257.1528 deg

Mean motion: 12.60429696 rev/day

Mean motion (dot): 0.00000255 rev/day2

B* drag term: 0.0017141 1/REarth

Two-line elements (TLE)

Creation date: July 16, 2025, 6:05 p.m.

Reference frame: TEME

Reference center: EARTH

Epoch: July 15, 2025, 11:47 p.m. UTC

TLE line 0: 0 DELTA 1 DEB

TLE line 1: 1 42092U 68114U 25196.99118107 .00000255 00000-0 17141-2 0 9994

TLE line 2: 2 42092 101.6542 304.2844 0038073 103.3797 257.1528 12.60429696535608

Live tracking on map

Real-time ground track for satellite DELTA 1 DEB.

In-orbit conjunctions

A list of the most updated potential collisions computed for object DELTA 1 DEB.

Target Orbit TCA Probability of collision Miss distance Type
COSMOS 342 LEO 2024-09-20 05:57:54 0.0007874436 160.0 (m) PAYLOAD

Associated space launch

The ESSA series was the second generation of US meterological satellites after the TIROS (Television & Infra-Red Observation Satellite) series. They were also called OT (Operational TIROS), TOS (TIROS Operational Satellite).

DELTA 1 DEB was lifted into orbit during the mission ‘Thor Delta N | ESSA 8’, on board a Thor Delta N space rocket.

The launch took place on Dec. 15, 1968, 5:21 p.m. from Space Launch Complex 2E.

For more information about the launch, click the button.

Launch to space Thor Delta N | ESSA 8
Thor Delta N | ESSA 8

Agency: N/A

Status: Launch Successful

Launch date: Dec. 15, 1968, 5:21 p.m. UTC

Rocket: Thor Delta N

Launch pad: Space Launch Complex 2E

Location: Vandenberg SFB, CA, USA

...

Latest news about this satellite

There are no fresh news available about this satellite. Check back as we update our databases every day.


Newsletter sign-up

Weekly statistics, charts and insights to help you stay on top of the space industry.